Kodiak, AK

11:43 AM AKST on January 19, 2018 (GMT -0900)
Kodiak

Weather History for PADQ - November, 2011

Change the Weather History Date:

Tuesday, November 8, 2011

  Actual Average Record
Temperature  
Mean Temperature 28 °F 35 °F  
Max Temperature 32 °F 40 °F 54 °F (1924)
Min Temperature 24 °F 30 °F 11 °F (1990)
Degree Days  
Heating Degree Days 37 30  
Month to date heating degree days 240 235  
Since 1 July heating degree days 2040 2097  
Cooling Degree Days 0 0  
Month to date cooling degree days 0 0  
Year to date cooling degree days 0 1  
Moisture  
Dew Point 7 °F    
Average Humidity 0    
Maximum Humidity 0    
Minimum Humidity 0    
Precipitation  
Precipitation 0.00 in 0.22 in 2.87 in (1997)
Month to date precipitation 0.57 1.80  
Year to date precipitation 60.65 64.20  
Snow  
Snow 0.00 in 0.20 in 2.00 in (1977)
Month to date snowfall 1.8 1.0  
Since 1 July snowfall 1.8 2.1  
Since 1 September snowfall 1.8 2.1  
Snow Depth 0.00 in    
Sea Level Pressure  
Sea Level Pressure 30.04 in    
Wind  
Wind Speed 16 mph (WNW)    
Max Wind Speed 29 mph    
Max Gust Speed 39 mph    
Visibility 10 miles    
Events      
T = Trace of Precipitation, MM = Missing Value Source: NWS Daily Summary

Daily Weather History Graph

Daily Weather History Graph

Search for Another Location

Airport or City:

Trip Planner

Search our weather history database for the weather conditions in past years. The results will help you decide how hot, cold, wet, or windy it might be!

Date:

Astronomy

Nov. 08, 2011 Rise Set
Actual Time 8:39 AM AKST 5:07 PM AKST
Civil Twilight 7:55 AM AKST 5:50 PM AKST
Nautical Twilight 7:08 AM AKST 6:37 PM AKST
Astronomical Twilight 6:23 AM AKST 7:23 PM AKST
Moon 4:00 PM AKST (11/8) 6:36 AM AKST (11/8)
Length of Visible Light 9h 54m
Length of Day
8h 28m
Waxing Gibbous, 96% of the Moon is Illuminated
Nov 8
Waxing Gibbous
Nov 10
Full
Nov 18
Last Quarter
Nov 24
New
Dec 2
First Quarter

Hourly Weather History & Observations

Time (AKST) Temp. Windchill Dew Point Humidity Pressure Visibility Wind Dir Wind Speed Gust Speed Precip Events Conditions
12:53 AM 24.1 °F 8.3 °F 6.1 °F 46% 29.88 in 10.0 mi WNW 24.2 mph 40.3 mph N/A   Partly Cloudy
1:53 AM 25.0 °F 7.3 °F 3.9 °F 41% 29.86 in 9.0 mi WNW 33.4 mph 47.2 mph N/A   Clear
3:53 AM 24.1 °F 7.1 °F 7.0 °F 48% 29.93 in 10.0 mi WNW 28.8 mph 46.0 mph N/A   Clear
4:53 AM 24.1 °F 9.8 °F 7.0 °F 48% 29.98 in 10.0 mi WNW 19.6 mph 38.0 mph N/A   Partly Cloudy
5:53 AM 25.0 °F 8.9 °F 7.0 °F 46% 29.98 in 10.0 mi WNW 26.5 mph 42.6 mph N/A   Partly Cloudy
6:53 AM 25.0 °F 10.6 °F 7.0 °F 46% 30.01 in 10.0 mi WNW 20.7 mph 36.8 mph N/A   Partly Cloudy
7:53 AM 25.0 °F 10.6 °F 6.1 °F 45% 30.02 in 10.0 mi WNW 20.7 mph 32.2 mph N/A   Partly Cloudy
8:53 AM 26.1 °F 15.6 °F 6.1 °F 43% 30.04 in 10.0 mi NW 11.5 mph 23.0 mph N/A   Partly Cloudy
9:53 AM 27.0 °F 12.8 °F 5.0 °F 39% 30.05 in 10.0 mi West 21.9 mph 32.2 mph N/A   Partly Cloudy
10:53 AM 28.9 °F 15.4 °F 5.0 °F 36% 30.08 in 10.0 mi West 21.9 mph 31.1 mph N/A   Clear
11:53 AM 30.0 °F 16.3 °F 6.1 °F 36% 30.09 in 10.0 mi WNW 24.2 mph 38.0 mph N/A   Clear
12:53 PM 30.9 °F 18.7 °F 7.0 °F 37% 30.10 in 10.0 mi WNW 19.6 mph 28.8 mph N/A   Clear
1:53 PM 32.0 °F 20.8 °F 7.0 °F 35% 30.09 in 10.0 mi WNW 17.3 mph 23.0 mph N/A   Clear
2:53 PM 32.0 °F 22.1 °F 6.1 °F 34% 30.09 in 10.0 mi WNW 13.8 mph 23.0 mph N/A   Clear
3:53 PM 32.0 °F 26.4 °F 8.1 °F 37% 30.09 in 10.0 mi West 5.8 mph - N/A   Clear
4:53 PM 30.9 °F 19.8 °F 6.1 °F 35% 30.08 in 10.0 mi WNW 16.1 mph 24.2 mph N/A   Scattered Clouds
5:53 PM 30.0 °F 21.7 °F 5.0 °F 35% 30.09 in 10.0 mi WNW 9.2 mph - N/A   Scattered Clouds
6:53 PM 28.9 °F 23.9 °F 5.0 °F 36% 30.09 in 10.0 mi NNW 4.6 mph - N/A   Scattered Clouds
7:53 PM 30.0 °F 23.2 °F 8.1 °F 40% 30.10 in 10.0 mi West 6.9 mph - N/A   Scattered Clouds
8:53 PM 30.0 °F 22.4 °F 12.0 °F 47% 30.09 in 10.0 mi WNW 8.1 mph - N/A   Scattered Clouds
9:53 PM 30.0 °F 26.5 °F 12.9 °F 49% 30.05 in 10.0 mi Variable 3.5 mph - N/A   Mostly Cloudy
10:53 PM 30.0 °F 25.2 °F 12.9 °F 49% 30.05 in 10.0 mi South 4.6 mph - N/A   Overcast
11:53 PM 28.0 °F - 14.0 °F 56% 30.03 in 10.0 mi Calm Calm - N/A   Overcast